Meteo Giornale » Osservazioni meteo Francia » Grenoble-St Geoirs

ore: 04:30 - Osservazioni Meteo Grenoble-St Geoirs
Lat. 45° 22' N Lon. 5° 20' E Alt. 384 metri s.l.m.

foschia Europe/Paris

14 °C

Foschia

Temp. 24 Ore

12 °C

19 °C

Nord

5.5 Km/h

Dew point 13 °C

Umidità 93 %

Visibilità  4 Km

Il sole sorge alle ore 07:58

Il sole tramonta alle ore 18:48

Data e Ora Cielo e Fenomeni T °C DP °C Um. % Pres. hPa Vis. km Vento km/h
Oggi h: 04:30 foschia Foschia 14 13 93 1011 4 N 5.5
Oggi h: 04:00 molto_nuvoloso Molto Nuvoloso 14 13 93 1011 7 N 3.7
Oggi h: 03:30 molto_nuvoloso Molto Nuvoloso 14 14 100 1011 7 N 5.5
Oggi h: 03:00 coperto Coperto 14 14 100 1012 10 O/NO 9.3
Oggi h: 02:30 coperto Coperto 14 13 93 1012 6 N 5.5
Oggi h: 02:00 sereno Sereno 14 13 93 1011 9 S/SO 7.4
Oggi h: 01:30 molto_nuvoloso Molto Nuvoloso 15 14 93 1011 8 NE 14.8
Oggi h: 01:00 molto_nuvoloso Molto Nuvoloso 14 14 100 1012 7 NE 14.8
Oggi h: 00:30 coperto Coperto 14 14 100 1012 6 E/NE 13
Oggi h: 00:00 coperto Coperto 14 14 100 1013 6 E 9.3
Ieri h: 23:30 coperto Coperto 14 14 100 1013 10 N 3.7
Ieri h: 23:00 coperto_pioggia Pioggia Debole 14 14 100 1013 7 N 5.5
Ieri h: 22:30 sereno Sereno 14 14 100 1013 8 E/NE 11.1
Ieri h: 22:00 molto_nuvoloso Molto Nuvoloso 14 13 93 1013 10 N 5.5
Ieri h: 21:30 coperto Coperto 15 14 93 1013 10 N 3.7
Ieri h: 21:00 coperto_pioggia Pioggia Foschia 15 14 93 1014 4 E/NE 9.3
Ieri h: 20:30 coperto_pioggia Pioggia Debole 15 14 93 1014 5 N 3.7
Ieri h: 20:00 coperto_pioggia Pioggia Debole 15 14 93 1014 10 N 0
Ieri h: 19:30 coperto_pioggia Pioggia Debole 15 14 93 1014 10 N 3.7
Ieri h: 19:00 coperto Coperto 16 13 82 1014 10 N 3.7
Ieri h: 18:30 coperto Coperto 16 12 77 1014 10 N 5.5
Ieri h: 18:00 coperto_pioggia Pioggia Debole 16 13 82 1014 10 N 3.7
Ieri h: 17:30 coperto_pioggia Pioggia Debole 16 13 82 1014 10 N 5.5
Ieri h: 17:00 coperto Coperto 17 13 77 1014 10 N 5.5
Ieri h: 16:30 coperto Coperto 17 14 82 1014 10 S/SO 9.3
Ieri h: 16:00 coperto_pioggia Pioggia Debole 17 13 77 1014 10 O/SO 14.8
Ieri h: 15:30 coperto Coperto 18 13 72 1014 10 SO 16.7
Ieri h: 15:00 coperto Coperto 18 13 72 1014 10 O/SO 16.7
Ieri h: 14:30 molto_nuvoloso Molto Nuvoloso 19 13 68 1015 10 SO 14.8
Ieri h: 14:00 coperto Coperto 19 12 63 1015 10 S/SO 18.5
Ieri h: 13:30 coperto Coperto 19 12 63 1015 10 N 5.5
Ieri h: 13:00 sereno Sereno 19 13 68 1016 10 O/SO 7.4
Ieri h: 12:30 nuvoloso Nuvoloso 17 13 77 1016 10 O/SO 7.4
Ieri h: 12:00 molto_nuvoloso Molto Nuvoloso 17 14 82 1016 10 O 11.1
Ieri h: 11:30 sereno Sereno 16 12 77 1016 10 N 5.5
Ieri h: 10:30 poco_nuvoloso Poco Nuvoloso 15 13 87 1016 10 E/NE 9.3
Ieri h: 10:00 molto_nuvoloso Molto Nuvoloso 14 13 93 1016 10 E 11.1
Ieri h: 09:30 molto_nuvoloso Molto Nuvoloso 13 13 100 1016 10 E 9.3
Ieri h: 09:00 coperto Coperto 13 12 93 1015 8 N 5.5
Ieri h: 08:30 coperto Coperto 13 12 93 1015 10 N 3.7
Ieri h: 08:00 coperto Coperto 12 12 100 1015 9 N 5.5
Ieri h: 07:30 coperto_pioggia Pioggia 12 12 100 1015 6 N 3.7
Ieri h: 07:00 coperto Coperto 12 12 100 1015 10 N 5.5
Ieri h: 06:00 coperto_pioggia Pioggia Debole 13 12 93 1015 10 N 1.8
Ieri h: 05:30 molto_nuvoloso Molto Nuvoloso 13 12 93 1015 10 N 5.5
Ieri h: 05:00 molto_nuvoloso Molto Nuvoloso 12 12 100 1015 10 E 7.4